Location: El Mouella
(16.4949°N, 9.1594°W)
Time: 22:03:37
(UTC+00:00)

STARLINK-60 - Visible Passes

Search period start: 01 October 2020 00:00
Search period end: 11 October 2020 00:00
Orbit: 358 x 369 km, 53.0° (Epoch: 01 October)

Date Brightness Start Highest point End Pass type
(mag) Time Alt. Az. Time Alt. Az. Time Alt. Az.
03 Oct 4.8 19:46:22 10° SSW 19:47:31 21° SSW 19:47:31 21° SSW visible
04 Oct 5.1 05:31:34 10° N 05:34:05 24° NE 05:36:35 10° ESE visible
04 Oct 4.9 18:42:40 10° SE 18:43:51 12° ESE 18:45:01 10° E visible
04 Oct 6.1 20:16:55 10° W 20:17:36 13° W 20:17:36 13° W visible
05 Oct 3.3 06:00:56 10° NW 06:03:44 38° SW 06:06:33 10° SSE visible
05 Oct 2.6 19:10:21 10° SW 19:13:19 89° E 19:15:34 16° NE visible
06 Oct 4.3 04:58:02 34° NE 04:58:02 34° NE 05:00:48 10° ESE visible
06 Oct 5.8 19:41:21 10° W 19:42:50 13° NW 19:44:19 10° NNW visible
07 Oct 4.0 05:27:48 25° SW 05:27:48 25° SW 05:29:55 10° S visible
